Regional Weather Roundup
Issued by NWS

Home | Current Version | Previous Version | Text Only | Print | Product List | Glossary On
Versions: 1 2 3 4 5 6 7 8 9 10 11 12 13 14 15 16 17 18 19 20 21 22 23 24 25 26 27 28 29 30 31 32 33 34 35 36 37 38 39 40 41 42 43 44 45 46 47 48 49 50
000
ASUS43 KOAX 272310
RWRNE

WEATHER ROUNDUP FOR NEBRASKA
NATIONAL WEATHER SERVICE OMAHA NE
500 PM CST FRI FEB 27 2015

NOTES: SATELLITE DATA IS BEING USED TO AUGMENT CLOUD COVER ABOVE
       12000 FEET.
       "FAIR" INDICATES FEW OR NO CLOUDS BELOW 12,000 FEET WITH NO
       SIGNIFICANT WEATHER AND/OR OBSTRUCTIONS TO VISIBILITY.

  * THESE STATIONS DO NOT REPORT WEATHER SUCH AS RAIN...SNOW OR FOG.

NEZ001>004-019>022-054>056-280000-
NEBRASKA PANHANDLE

CITY           SKY/WX    TMP DP  RH WIND       PRES   REMARKS
SCOTTSBLUFF    CLOUDY    23   8  52 S23G30    30.00F WCI   7
ALLIANCE       CLOUDY    19   8  62 S22G31    30.03F WCI   2
CHADRON        CLOUDY    23  10  57 S18G32    30.04F WCI   9
KIMBALL        PTSUNNY   18   8  65 S23       29.94F WCI   0
SIDNEY         CLOUDY    17   8  67 S21G29    30.04S WCI   0
$$

NEZ057>060-069>072-079>082-280000-
SOUTHWEST NEBRASKA

CITY           SKY/WX    TMP DP  RH WIND       PRES   REMARKS
NORTH PLATTE   PTSUNNY   21   3  45 S13       30.23S WCI   9
IMPERIAL         N/A     19   6  57 S18G25    30.17F WCI   4
LEXINGTON      MOSUNNY   24  -3  31 S13G20    30.29F WCI  12
MCCOOK         CLOUDY    23   6  48 S16       30.27F WCI  10
OGALLALA       CLOUDY    20  10  66 S17       30.16S WCI   5
$$

NEZ005>010-023>029-035>040-094-280000-
NORTH CENTRAL NEBRASKA

CITY           SKY/WX    TMP DP  RH WIND       PRES   REMARKS
VALENTINE      SUNNY     26   1  34 S17       30.18F WCI  13
AINSWORTH      SUNNY     24  -4  29 S12       30.22F WCI  13
BROKEN BOW     SUNNY     24  -3  30 S20       30.27F WCI  10
O`NEILL        SUNNY     25  -4  28 S12       30.32S WCI  14
ORD            SUNNY     23  -8  25 S12       30.32F WCI  12
THEDFORD       SUNNY     25   2  37 S18       30.20F WCI  12
$$

NEZ041-046>049-061>064-073>077-083>087-280000-
SOUTH CENTRAL NEBRASKA

CITY           SKY/WX    TMP DP  RH WIND       PRES   REMARKS
GRAND ISLAND   SUNNY     22  -3  33 S13       30.39F WCI  10
AURORA         SUNNY     21  -4  33 SE9       30.40S WCI  11
HASTINGS       SUNNY     21  -6  30 S10       30.37F WCI  10
HEBRON         SUNNY     21   0  39 S8        30.46S WCI  11
HOLDREGE       SUNNY     21  -6  30 S14       30.32F WCI   8
KEARNEY *      FAIR      21  -6  30 S12       30.34F WCI   9
YORK           SUNNY     23  -2  33 S12       30.42F WCI  12
$$

NEZ011>018-030>034-042>045-280000-
NORTHEAST NEBRASKA

CITY           SKY/WX    TMP DP  RH WIND       PRES   REMARKS
NORFOLK        SUNNY     21   0  39 S9        30.40F WCI  11
ALBION         SUNNY     22  -5  29 S10       30.38S WCI  11
BLAIR          SUNNY     20   3  47 E3        30.47F
COLUMBUS *     SUNNY     19  -2  38 SE9       30.45F WCI   9
FREMONT        SUNNY     20   2  45 SE8       30.48F WCI  11
TEKAMAH        SUNNY     17   5  59 SE6       30.51F WCI   9
WAYNE          SUNNY     20   3  47 SE8       30.44F WCI  11
$$

NEZ050>053-065>068-078-088>093-280000-
SOUTHEAST NEBRASKA

CITY           SKY/WX    TMP DP  RH WIND       PRES   REMARKS
LINCOLN        SUNNY     21   1  41 SE6       30.50S WCI  13
OMAHA EPPLEY   MOSUNNY   19   4  51 E8        30.52F WCI   9
BEATRICE       SUNNY     20  -1  38 SE5       30.48S WCI  14
FALLS CITY     PTSUNNY   19  -2  39 S6        30.53S WCI  11
NEBRASKA CITY  SUNNY     19  -8  30 SE5       30.50F WCI  12
PLATTSMOUTH    SUNNY     19   1  45 CALM      30.50S
$$

NEZ044-045-051>053-067-280000-
OMAHA AREA

CITY           SKY/WX    TMP DP  RH WIND       PRES   REMARKS
OMAHA EPPLEY   MOSUNNY   19   4  51 E8        30.52F WCI   9
BLAIR          SUNNY     20   3  47 E3        30.47F
FREMONT        SUNNY     20   2  45 SE8       30.48F WCI  11
MILLARD        SUNNY     20   2  45 SE3       30.51S
OFFUTT AFB     SUNNY     20   4  49 E6        30.51F WCI  12
PLATTSMOUTH    SUNNY     19   1  45 CALM      30.50S
WAHOO          FAIR      20  -1  40 S8        30.48F WCI  10
$$


USA.gov is the U.S. government's official web portal to all federal, state and local government web resources and services.